Skip Page Navigation
NASA JPL Caltech
NASA Logo - Jet Propulsion Laboratory + View the NASA Portal
+ Center for Near-Earth Object Studies
JPL Home Earth Solar System Stars & Galaxies Technology
JPL Solar System Dynamics
BODIES ORBITS EPHEMERIDES TOOLS PHYSICAL DATA DISCOVERY FAQ SITE MAP
IMPORTANT: The SSD Announcement email list is now available. Major changes are coming in the near future, including possible hostname and/or URL changes. To be notified of such changes, subscribe to this email list.

Please visit this page for more details.


JPL Small-Body Database Browser
Search: [ help ]  
48360 (1262 T-2)
Classification: Main-belt Asteroid          SPK-ID: 2048360
Ephemeris | Orbit Diagram | Orbital Elements | Mission Design | Physical Parameters | Discovery Circumstances | Close-Approach Data ]

[ show orbit diagram ]
Orbital Elements at Epoch 2459000.5 (2020-May-31.0) TDB
Reference: JPL 20 (heliocentric ecliptic J2000)
 Element Value Uncertainty (1-sigma)   Units 
e .1585225819417566 4.6101e-08  
a 2.19915110177131 9.4827e-09 au
q 1.850535991038463 1.0011e-07 au
i 5.06238183347989 4.6295e-06 deg
node 7.483268440915772 5.4216e-05 deg
peri 230.3155461764634 5.5857e-05 deg
M 224.4287120022642 1.4259e-05 deg
tp 2459449.086556002210
(2021-Aug-22.58655600)
4.806e-05 TDB
period 1191.189982376597
3.26
7.7046e-06
2.109e-08
d
yr
n .3022187940850105 1.9547e-09 deg/d
Q 2.547766212504157 1.0986e-08 au
  Orbit Determination Parameters
   # obs. used (total)      697  
   data-arc span      21666 days (59.32 yr)  
   first obs. used      1960-09-24  
   last obs. used      2020-01-19  
   planetary ephem.      DE431  
   SB-pert. ephem.      SB431-N16  
   condition code      0  
   norm. resid. RMS      .50116  
   source      ORB  
   producer      Otto Matic  
   solution date      2020-Feb-23 09:05:24  

Additional Information
 Earth MOID = .843924 au 
 Jupiter MOID = 2.46543 au 
 T_jup = 3.645 
[ show covariance matrix ]

Ephemeris | Orbit Diagram | Orbital Elements | Mission Design | Physical Parameters | Discovery Circumstances | Close-Approach Data ]

Physical Parameter Table
Parameter Symbol Value Units Sigma Reference Notes
absolute magnitude H 16.1   n/a MPO452830  

48360 (1262 T-2)          Discovered 1973-Sep-29 by van Houten, C. J., van Houten-Groeneveld, I., Gehrels, T. at Palomar
Reference: 20020921/Numbers.arcLast Updated: 2004-04-19

[ hide close-approach data ]
Close-Approach Data   ...sorted by Date/Time (TDB)
Date/Time (TDB) Time Uncertainty
(days_HH:MM)
Body Nominal Distance (au) Minimum Distance (au) Maximum Distance (au) V-relative (km/s) V-infinity (km/s) JD (TDB) Time Uncertainty (minutes) Semi-major axis (km) Semi-minor axis (km) range-LOV angle (deg) N-sigma BP Orbit Ref. Reference Modified
1987-Dec-04 07:02 < 00:01 Amphi 0.0445146479949023 0.0445129831668039 0.044516312841535 3.42194115189984 3.42194111416022 2447133.792949541 0.824625576756391 105.548876538291 59.7947193714493 -48.6226378316861 93330.6501332239 T 20 CATAB v2.0f-lin.ifort 2020-Feb-23 09:05:37 2020-Feb-23 09:05

Alternate Designations
 1262 T-2 = 2841 P-L 
Ephemeris | Orbit Diagram | Orbital Elements | Mission Design | Physical Parameters | Discovery Circumstances | Close-Approach Data ]
ABOUT SSD CREDITS/AWARDS PRIVACY/COPYRIGHT GLOSSARY LINKS
FirstGov 2020-Mar-30 01:53 UT
(server date/time)  
NASA Home Page
Site Manager:   Ryan S. Park
Webmaster  Alan B. Chamberlin